Wind_Speed
11 11 11 12 11 12 13 13 13 13 12 11 9 8 7 6 9 17 18 17 17 16 16 18 21 24 23 19 17 15 14 13 11 10 10 10 8 7 6 6 7 6 6 6 6 6 6 6 7 8 9 9 10 10 10 10 9 9 8 6 5 3 2 2 3 2 2 2 1 1 2 3 4 5 6 7 9 11 13 15 18 19 20 19 19
10 10 11 12 12 14 15 15 14 13 13 11 11 11 11 10 11 17 17 15 16 16 15 15 18 22 23 20 17 15 14 13 12 11 11 12 11 9 7 7 7 7 7 6 6 7 7 6 7 8 9 10 10 11 11 11 10 10 10 8 6 5 3 3 3 3 3 3 2 1 1 2 3 4 5 6 8 10 12 14 17 18 19 19 18
11 11 12 12 13 14 15 16 14 14 14 13 13 13 14 14 13 16 16 14 14 14 13 14 15 18 20 19 17 15 14 14 12 11 11 10 9 8 8 8 8 8 8 7 7 7 8 7 7 8 9 10 11 12 12 12 12 11 11 9 8 6 5 4 4 4 4 4 4 3 2 2 2 3 4 6 7 9 11 13 16 17 18 18 17
13 13 14 14 13 13 14 14 14 15 16 15 15 15 16 17 16 16 16 15 13 12 12 13 15 16 18 18 18 16 15 15 13 11 10 8 7 6 6 7 8 9 9 9 8 8 9 9 8 8 9 10 11 12 13 13 13 13 12 11 10 9 6 6 5 5 5 5 5 4 3 2 2 3 4 5 6 8 10 12 14 16 17 17 17
15 15 16 16 15 13 12 12 13 15 14 15 16 16 18 19 18 17 16 15 14 12 12 12 14 15 16 17 18 18 17 16 14 12 11 9 7 6 6 6 7 8 9 10 10 9 10 10 10 10 10 11 11 12 13 13 13 14 14 12 12 11 9 7 7 6 6 6 6 5 4 3 3 3 3 4 5 6 8 10 13 15 16 16 16
17 17 18 18 15 13 12 12 13 14 12 14 17 17 19 21 20 19 17 16 15 13 12 12 12 14 16 15 17 19 18 17 14 13 13 11 10 9 8 7 7 8 9 10 10 10 11 11 12 12 11 11 12 13 13 13 13 13 15 14 13 13 12 10 8 8 8 8 7 6 6 5 3 3 3 3 4 5 7 9 11 13 15 15 15
16 17 17 16 14 12 13 14 12 11 9 11 16 17 19 21 22 20 18 18 17 15 14 12 11 13 15 14 14 16 17 16 13 13 13 13 12 11 10 9 9 9 10 10 11 11 11 11 12 12 11 11 12 13 13 13 13 13 14 15 14 14 14 12 11 9 9 9 9 8 7 6 4 3 3 3 3 4 6 8 10 12 14 14 14
15 15 14 13 14 13 13 13 11 10 10 11 15 17 17 19 22 21 20 20 19 18 16 13 11 13 17 15 13 14 15 15 15 15 14 14 13 13 12 12 12 12 11 11 11 11 11 12 12 12 12 11 11 11 12 12 13 13 13 14 15 14 14 14 13 10 10 11 10 9 8 7 6 4 3 3 2 3 4 6 8 10 12 13 13
13 14 12 12 13 13 13 12 12 13 13 12 14 15 15 16 18 19 20 22 21 20 18 14 12 14 18 17 16 15 14 15 17 18 17 16 15 15 14 14 15 15 14 13 12 12 12 13 13 13 13 12 12 11 11 12 12 13 13 13 13 14 14 15 15 11 11 12 12 11 9 8 7 5 4 3 2 2 3 4 7 9 11 12 12
10 12 12 13 12 11 11 9 11 15 15 13 13 12 13 14 16 16 18 20 21 20 17 14 13 14 17 18 18 16 15 15 18 19 19 17 16 16 15 15 16 17 17 15 14 14 14 14 14 14 14 13 13 13 12 12 13 13 14 13 12 12 13 15 15 13 12 13 13 12 11 10 9 7 5 4 3 2 2 3 5 7 9 11 12
10 10 10 12 12 12 10 8 11 15 15 14 13 12 13 14 15 17 18 18 21 21 17 16 15 13 15 19 20 18 16 16 17 19 20 18 18 17 17 16 16 16 17 17 16 16 16 15 15 15 15 15 14 14 14 13 14 14 14 14 14 13 11 12 15 15 13 13 14 14 13 11 10 8 6 5 3 3 3 3 4 6 8 9 10
13 13 12 12 12 13 11 10 12 12 12 13 13 13 14 14 15 17 19 19 20 21 19 18 17 15 14 17 19 19 18 17 16 18 20 19 18 18 18 18 18 17 17 17 18 18 18 17 17 17 16 16 15 15 15 14 14 15 15 15 14 14 12 10 13 14 14 15 15 15 14 13 11 10 8 6 5 4 4 3 3 5 7 8 9
14 14 14 13 12 11 10 10 10 8 8 11 12 14 15 16 16 16 17 18 18 19 19 18 17 16 16 16 16 17 17 18 17 19 21 21 20 19 19 20 20 20 19 19 19 19 19 19 19 18 17 17 17 16 16 15 15 16 16 16 15 15 14 11 11 13 15 16 16 15 15 14 12 11 9 7 6 5 5 4 3 4 6 7 8
12 12 12 13 12 11 10 9 9 7 6 8 9 11 13 16 16 15 16 17 17 18 18 18 16 15 16 16 16 16 16 17 18 19 20 21 21 21 21 22 22 22 21 21 21 22 22 21 20 20 19 19 18 18 18 17 16 16 16 16 16 16 15 12 11 13 15 16 18 15 14 15 14 13 11 9 7 7 6 6 5 4 6 7 7
8 8 8 9 9 9 9 8 8 7 6 6 7 7 9 10 10 12 15 13 14 16 16 18 16 14 14 15 15 15 15 16 17 19 19 19 21 22 23 23 23 23 23 24 24 24 24 23 23 22 22 20 20 19 19 19 18 17 16 16 16 16 16 12 10 14 15 16 19 17 14 15 16 14 13 11 9 9 8 7 6 5 6 7 6
4 6 6 7 7 7 6 7 7 7 7 7 7 7 6 6 6 7 9 7 9 11 8 12 16 13 11 11 11 11 12 13 15 18 19 19 21 22 22 22 22 23 24 24 25 25 25 25 24 24 23 22 21 21 20 20 19 18 18 17 16 16 15 12 10 12 14 16 19 19 16 15 16 16 14 13 11 10 10 9 8 7 6 7 6
4 2 3 5 6 6 5 5 5 6 6 6 7 7 5 5 5 5 6 6 7 8 5 5 9 8 7 8 8 8 9 10 13 15 17 19 20 22 22 21 21 22 23 23 24 25 26 26 26 25 24 24 23 23 22 22 21 21 20 19 17 16 15 13 10 10 12 15 17 19 18 16 16 17 15 14 13 12 11 10 9 8 7 7 6
9 7 4 1 2 5 5 5 5 5 5 5 6 6 5 6 6 6 6 6 5 7 7 7 6 5 6 7 8 8 10 10 12 14 14 16 18 20 22 23 23 23 23 24 24 24 25 26 27 26 26 26 25 24 24 23 23 23 22 21 18 16 16 15 12 10 8 13 17 19 20 19 17 17 17 16 14 13 13 12 11 9 8 8 7
12 11 10 8 6 3 0 2 4 4 5 6 6 7 7 8 8 8 7 7 7 7 8 9 8 7 7 7 8 10 11 10 11 13 14 15 16 16 19 22 24 25 26 26 26 26 26 26 27 28 28 28 27 27 26 25 25 25 24 23 20 18 17 16 14 12 9 9 17 20 21 21 20 17 17 18 16 15 14 13 12 11 9 8 7
10 11 11 10 10 9 7 5 3 1 1 3 5 7 8 9 10 11 11 11 11 10 9 10 10 10 9 9 9 10 10 10 10 12 13 16 18 16 16 18 19 20 22 23 25 27 28 28 27 28 28 29 29 28 28 27 26 26 25 25 23 20 18 17 16 14 11 7 13 19 21 22 22 20 18 19 19 17 15 14 13 12 11 9 8
8 9 10 10 9 8 8 7 6 5 4 2 0 2 4 7 9 11 13 14 15 14 13 13 12 12 12 11 12 12 12 12 12 13 13 15 20 20 19 19 20 20 19 19 21 23 25 28 29 29 29 29 29 28 28 27 27 26 26 26 25 23 20 19 18 17 14 9 9 15 20 23 24 23 20 19 20 19 17 16 15 13 12 10 9
6 7 7 7 7 7 7 6 5 5 4 3 3 2 2 4 6 8 10 13 15 16 16 16 16 15 14 14 14 14 15 14 13 14 13 14 18 20 21 21 23 25 23 21 21 22 22 23 25 28 30 30 29 28 28 28 27 26 25 25 26 24 22 21 20 19 17 13 10 11 16 22 25 25 23 21 21 22 20 17 16 15 13 12 10
4 5 5 5 5 5 5 5 5 4 4 4 4 5 5 5 6 7 8 11 13 15 17 18 19 18 17 16 16 15 15 14 14 15 14 15 18 20 21 21 23 25 24 22 22 24 25 24 23 24 26 27 29 29 28 27 27 26 25 25 25 25 23 22 22 21 19 17 14 12 12 18 24 27 26 23 21 22 22 19 17 16 14 13 11
2 2 3 3 3 3 3 4 5 6 6 6 6 6 8 8 9 9 8 9 11 13 15 17 18 20 20 19 19 18 17 16 16 17 16 17 18 21 22 21 23 25 24 22 22 23 25 28 28 27 26 26 27 28 28 28 27 25 25 25 25 25 24 24 24 23 22 20 18 16 14 15 21 26 28 26 23 21 23 22 19 17 16 14 12
2 1 1 1 1 2 4 5 6 7 8 8 8 8 9 9 10 10 9 10 10 11 13 14 16 17 19 20 20 21 21 20 19 18 18 19 20 21 21 20 21 24 24 24 24 24 23 25 27 28 28 27 26 26 26 27 27 26 25 25 25 26 26 26 25 25 24 22 20 19 17 15 17 22 27 29 25 21 22 24 21 19 18 16 14
4 3 2 2 3 3 5 6 7 8 8 9 9 9 10 10 10 10 10 10 10 11 12 13 14 15 16 18 19 21 22 22 21 21 20 21 21 21 22 23 23 24 24 24 26 27 25 23 23 24 25 25 26 26 24 24 25 26 26 26 26 26 28 27 27 26 26 25 22 20 19 18 17 19 24 27 28 24 21 23 24 21 19 17 15
7 6 5 4 5 6 6 7 8 9 9 9 10 10 10 11 11 11 11 10 10 10 11 12 12 13 14 16 17 18 20 21 22 22 21 22 22 21 22 24 26 27 27 26 26 26 26 25 23 22 22 23 26 27 26 24 24 24 24 25 26 26 28 29 28 27 27 26 24 22 21 20 19 19 21 25 30 29 24 23 24 23 21 19 17
9 9 8 7 7 7 8 9 10 10 11 11 11 11 12 12 12 12 12 12 12 11 11 11 12 12 13 14 16 16 17 18 19 20 21 22 22 22 22 22 23 26 28 28 28 27 26 25 24 21 19 20 22 24 25 26 26 25 24 23 24 24 26 28 27 27 27 27 25 23 23 22 21 21 21 23 28 30 28 25 24 24 23 21 19
11 10 9 9 9 9 10 11 12 12 12 12 12 13 14 14 14 14 13 13 13 12 12 12 12 12 13 14 15 16 16 16 17 18 19 20 22 23 23 22 21 23 25 26 29 29 27 27 26 24 20 19 19 21 22 23 24 26 27 27 27 27 27 28 27 26 26 27 26 25 24 23 22 23 23 24 25 27 28 27 26 25 24 23 21
12 11 11 11 10 11 12 13 13 13 13 14 14 14 15 16 16 16 16 15 14 13 12 13 13 14 14 14 15 16 16 15 15 16 17 18 20 21 22 22 22 22 23 24 29 31 30 30 30 28 25 21 19 20 21 21 21 23 26 28 29 28 27 28 28 26 25 27 28 26 25 24 24 24 25 25 26 26 27 28 29 27 25 25 23
14 13 13 12 12 13 13 14 14 14 14 14 15 15 16 17 17 18 18 18 17 15 14 14 14 14 15 16 16 16 15 15 15 15 17 18 19 20 21 22 22 23 22 23 27 30 29 29 30 30 29 27 24 22 22 21 21 23 25 26 27 26 25 25 26 26 26 27 28 28 27 25 25 26 26 26 27 28 27 27 29 29 27 26 25
16 15 14 14 13 14 15 15 15 15 15 15 15 16 17 17 19 19 20 20 19 18 17 17 16 16 16 16 17 17 16 16 16 15 16 17 19 20 21 22 22 23 22 22 25 29 29 27 27 28 28 28 27 26 25 24 23 24 25 25 25 26 26 26 26 25 25 27 29 30 29 28 27 27 27 27 27 28 28 26 28 30 29 27 26
17 16 15 15 15 15 16 16 15 15 15 15 15 16 17 18 19 20 21 21 20 20 20 20 19 18 18 17 17 17 18 18 18 17 17 17 18 20 21 22 23 23 23 23 24 28 30 28 25 25 24 23 25 26 26 26 25 24 24 24 26 28 28 28 28 27 26 27 29 31 31 30 29 29 29 28 28 28 28 26 27 30 30 27 27
19 17 16 16 16 16 16 16 15 15 15 14 15 16 17 19 20 20 21 21 22 22 22 22 22 21 21 20 19 18 19 20 21 20 20 19 19 19 20 22 23 24 23 24 25 26 30 30 27 26 23 21 23 24 24 25 26 25 25 25 25 26 27 27 27 27 27 27 28 31 32 31 30 31 31 29 28 28 28 26 27 31 32 29 27
19 18 18 17 17 17 16 16 15 15 14 14 14 16 18 19 20 20 20 21 22 23 23 24 24 24 24 23 23 21 21 22 23 23 22 22 21 20 21 21 23 24 24 23 24 25 28 30 28 26 22 20 21 23 23 25 26 26 26 25 24 24 24 25 24 24 26 26 27 29 30 31 31 32 32 31 29 29 29 27 27 30 32 31 28
20 19 19 18 18 17 16 16 15 14 14 14 15 16 18 19 19 19 19 20 21 23 24 25 26 26 26 26 26 25 25 25 24 24 25 25 24 22 22 22 22 24 25 24 24 24 26 29 30 27 23 20 19 19 21 23 25 25 26 26 26 24 23 23 23 23 25 27 29 29 28 30 31 32 33 33 31 30 30 28 28 29 31 31 30
20 19 19 18 18 17 16 15 14 14 13 14 16 17 18 19 19 19 20 21 22 24 26 27 28 28 29 29 29 28 27 27 26 26 26 26 26 26 25 24 23 23 24 25 25 25 26 29 31 31 27 24 21 19 19 20 22 24 25 24 25 25 24 23 23 23 25 28 31 31 30 29 31 33 35 35 33 32 31 29 28 29 31 31 30
19 19 18 18 17 16 15 14 13 13 13 15 17 18 19 19 19 20 21 23 25 26 27 29 30 31 31 32 32 31 30 30 29 28 28 27 28 28 28 28 27 26 25 25 26 26 28 30 32 34 33 30 27 24 21 19 19 21 24 25 25 25 25 25 24 24 25 26 29 31 30 30 31 34 36 36 34 33 33 31 29 29 31 32 31
19 18 18 17 16 15 13 13 12 13 14 16 18 19 20 20 21 23 24 26 28 29 30 32 33 33 33 33 32 32 32 33 32 31 31 30 30 30 31 31 30 29 29 28 27 27 28 30 32 35 36 34 32 29 25 21 19 18 21 25 27 27 26 27 26 26 26 26 26 28 30 30 31 32 37 38 36 35 36 34 31 29 31 33 32
18 17 16 15 14 13 12 12 12 13 15 17 19 20 21 22 24 26 27 29 31 32 34 36 36 35 35 33 32 32 33 34 35 35 35 34 34 34 33 33 32 32 32 31 31 30 30 30 32 34 36 36 35 33 29 25 22 20 18 21 25 26 27 28 28 28 27 27 26 27 29 30 31 32 36 40 39 37 38 37 34 31 31 33 34
16 15 14 14 13 12 12 12 13 15 16 18 20 21 22 24 26 28 30 32 34 36 38 39 38 37 36 35 33 32 33 34 35 36 37 37 37 37 36 35 35 35 36 35 35 34 33 32 33 34 36 37 36 35 33 30 27 25 22 20 22 23 25 29 30 29 27 27 27 27 28 29 30 33 36 41 41 39 40 40 38 36 33 32 34
14 14 13 12 12 11 11 13 14 16 18 20 21 22 24 26 28 30 32 35 37 39 41 41 40 39 37 36 34 33 33 34 34 35 36 37 38 39 39 38 38 38 38 39 39 38 36 36 35 34 36 38 38 35 35 33 31 30 29 27 25 23 24 28 31 29 27 27 28 28 28 29 30 31 34 39 42 41 41 41 42 42 39 34 33
14 13 12 11 11 11 13 14 16 18 20 22 23 25 26 28 30 32 35 38 40 41 42 42 41 40 39 38 36 35 34 34 35 36 36 36 37 37 38 39 40 40 40 40 41 41 40 40 39 37 37 39 39 37 36 35 33 32 32 31 30 27 25 27 31 31 28 27 29 30 30 30 30 31 33 36 39 40 41 42 43 45 45 39 34
13 12 11 11 11 13 15 17 19 20 22 23 25 26 28 30 32 35 38 40 41 41 41 40 40 40 40 39 38 37 37 36 36 37 37 38 38 37 37 37 39 40 40 41 42 42 42 42 42 42 41 40 39 38 37 36 35 34 33 32 32 30 27 26 28 30 29 30 32 32 31 30 30 32 33 34 37 38 40 43 44 47 50 45 37
12 12 12 12 13 15 17 19 20 21 23 24 26 28 30 33 35 37 39 39 39 39 38 38 39 39 39 40 40 40 39 38 38 38 38 38 39 39 39 39 39 39 40 40 41 42 43 43 44 45 45 42 41 40 38 36 35 34 33 33 31 29 28 27 26 27 28 30 33 34 32 31 31 33 33 33 35 37 39 43 46 50 53 49 41
13 13 13 14 15 17 18 19 20 22 23 25 27 29 32 34 35 36 37 37 37 37 37 37 38 38 39 39 40 41 40 40 39 38 38 38 38 39 40 40 40 40 39 40 40 41 42 43 46 48 47 45 44 43 40 38 36 34 32 32 32 30 29 27 26 26 25 27 31 34 34 33 32 33 32 31 33 36 38 42 46 51 52 49 45
14 14 14 15 15 16 17 19 21 23 25 26 28 30 31 32 33 34 35 36 36 36 37 37 37 38 38 38 40 41 41 41 40 39 39 39 39 40 40 41 41 40 40 40 39 39 40 42 45 47 48 48 47 46 44 41 40 38 35 33 32 32 31 30 29 28 26 25 28 31 33 33 32 32 32 30 31 34 36 39 44 48 50 49 47
14 14 14 14 15 16 17 20 22 24 25 26 28 29 30 30 32 33 34 35 36 36 37 37 37 38 38 38 39 40 41 41 41 40 40 40 40 42 42 42 42 41 41 40 39 39 39 40 42 44 46 47 47 47 46 44 43 42 39 36 34 32 32 33 35 35 33 29 29 29 30 30 30 31 31 31 31 34 36 38 41 46 48 48 46
13 12 13 13 15 17 19 21 23 25 25 26 27 28 29 30 32 34 35 35 37 37 38 38 38 39 38 38 39 40 42 42 41 41 40 40 41 43 43 44 43 43 43 41 39 39 39 39 40 41 41 43 44 45 47 47 46 43 41 41 39 34 32 34 36 39 38 34 30 28 28 28 28 29 31 32 33 34 35 38 41 43 46 46 45
11 11 12 13 15 17 19 21 23 24 25 26 27 28 30 32 33 35 36 37 38 39 39 40 40 40 40 40 39 40 42 42 41 41 40 40 41 43 43 44 44 45 44 41 40 40 39 39 39 39 39 39 40 41 44 46 46 43 43 46 44 37 35 36 37 38 39 37 31 28 30 31 30 30 30 31 32 33 34 36 38 41 44 46 45
11 12 12 14 16 18 19 20 21 22 24 25 27 30 32 33 35 36 37 38 39 40 40 41 41 41 41 41 40 40 41 41 40 39 38 38 41 43 42 43 45 47 45 42 41 41 40 39 39 38 39 39 38 38 39 41 42 42 43 46 46 42 39 38 37 36 38 39 36 33 33 34 32 31 31 30 30 31 32 33 35 38 41 44 44
Wind_Direction
225 227 228 229 229 233 237 231 224 218 213 209 198 184 169 154 158 169 168 159 156 157 166 180 191 197 201 200 196 196 201 206 211 220 233 240 243 247 259 277 284 289 295 297 297 284 272 265 265 264 259 259 260 262 266 273 276 276 278 278 280 285 282 269 257 242 238 245 276 353 22 29 29 25 19 15 13 11 11 10 9 11 13 16 21
232 236 237 238 236 236 242 239 228 217 214 212 202 186 170 158 154 165 169 162 155 153 156 167 182 193 200 203 203 206 212 218 223 230 242 248 250 252 259 274 284 290 295 296 298 292 286 279 272 271 267 265 262 259 259 264 268 269 274 275 274 277 269 262 256 244 243 248 256 280 347 12 19 20 19 16 13 11 10 10 9 10 12 14 19
240 243 246 249 246 240 242 242 234 221 214 211 205 194 179 172 167 167 173 171 163 163 164 164 170 183 192 197 201 208 217 222 225 228 236 244 248 256 262 272 282 289 295 295 298 296 291 288 284 280 276 275 271 267 263 261 264 265 270 272 269 270 266 263 255 241 242 249 255 268 298 335 359 7 14 17 14 13 11 10 9 9 11 13 17
249 252 255 256 252 245 243 241 237 231 221 212 207 201 189 184 182 178 180 183 183 186 187 182 176 176 185 194 200 207 214 216 217 217 222 230 241 256 264 274 284 287 290 292 296 296 294 294 293 290 287 286 282 279 276 270 267 265 267 269 269 269 264 263 256 238 238 245 251 260 274 296 324 347 4 14 14 13 11 9 8 8 9 11 14
253 256 258 256 248 242 242 237 237 239 231 218 211 204 198 195 192 191 190 192 196 202 205 199 189 186 187 192 199 206 212 213 213 217 220 225 233 246 260 275 286 287 287 289 295 297 297 298 300 301 298 296 292 289 287 283 277 270 267 265 266 269 265 261 257 240 233 238 245 252 262 274 294 319 346 9 13 12 11 9 8 7 8 9 12
255 256 254 251 244 237 236 234 241 250 245 229 218 206 201 201 199 201 203 200 201 207 212 210 206 205 198 192 197 205 212 214 216 226 230 228 231 241 253 267 277 285 290 291 297 300 302 303 305 308 308 305 301 299 297 293 289 281 273 265 259 261 263 261 257 243 231 232 238 243 253 262 274 298 322 357 8 10 10 8 7 5 5 7 10
254 253 252 253 251 244 237 234 240 250 249 240 231 218 206 203 202 206 211 208 206 210 214 216 223 221 206 195 197 203 211 218 223 233 236 232 232 241 249 258 264 274 288 294 299 302 307 311 310 312 315 313 309 307 306 302 300 295 286 276 263 256 257 258 255 245 230 227 233 236 243 252 260 280 302 334 358 5 7 6 4 2 2 4 7
250 250 251 257 256 251 247 240 238 244 243 238 235 228 215 209 208 211 217 217 214 216 217 214 222 223 211 203 202 205 211 220 228 233 235 235 237 242 248 256 260 266 277 288 296 300 306 311 312 313 317 319 319 318 315 311 306 301 297 290 278 265 254 251 252 245 229 224 228 233 238 245 251 263 281 307 339 353 0 2 0 359 359 1 4
251 253 253 253 252 249 252 247 235 240 241 233 232 230 223 220 217 217 223 224 221 221 218 213 216 221 218 213 211 213 217 224 232 235 236 238 241 243 248 255 260 262 266 276 287 293 299 304 307 310 312 317 322 327 328 324 318 308 302 298 292 281 263 252 249 242 230 224 224 229 234 239 244 250 262 281 306 331 346 354 355 354 355 357 360
259 261 255 248 248 251 258 251 230 233 236 235 234 232 230 231 230 228 229 228 228 228 222 217 218 224 226 222 219 220 224 231 236 236 238 241 244 246 249 254 259 260 261 268 279 284 288 293 298 302 305 312 317 322 330 331 328 321 310 301 296 290 275 261 254 245 236 229 224 226 231 234 239 243 248 261 276 291 317 338 347 347 348 353 355
270 273 264 249 246 252 263 259 237 232 232 236 240 238 236 236 237 238 236 232 234 236 235 230 223 223 228 224 223 224 226 234 239 236 238 243 247 249 252 254 256 256 257 262 271 278 281 283 286 293 298 304 309 313 321 328 328 327 322 312 300 293 286 272 261 251 241 238 231 226 228 230 234 238 239 246 257 263 278 308 331 338 340 346 351
273 277 276 264 250 249 253 246 240 232 224 233 242 240 241 241 240 243 243 243 243 242 243 240 229 222 225 223 225 228 230 238 242 239 239 244 249 253 255 256 256 256 255 256 263 270 274 275 277 284 291 296 301 304 310 318 323 325 327 324 312 299 291 279 265 251 240 244 241 231 228 229 231 233 236 237 241 251 256 274 306 323 329 337 343
272 273 272 271 262 251 247 241 244 238 221 230 239 239 242 243 242 244 245 249 252 247 246 250 247 238 229 226 230 231 236 243 243 239 239 244 249 253 256 257 258 259 260 257 257 263 267 270 272 276 283 289 292 294 299 307 314 319 323 325 321 307 294 278 260 242 235 242 246 239 230 228 232 232 232 232 231 240 245 254 276 301 314 325 334
266 267 263 265 265 258 253 247 249 249 236 239 246 245 245 242 239 240 243 248 251 247 246 250 257 254 238 234 238 235 238 243 245 243 241 244 247 250 254 257 260 261 264 263 261 262 264 266 269 272 278 282 285 287 290 297 305 311 314 317 319 314 303 284 252 232 231 241 247 247 237 227 230 233 232 230 228 234 238 244 256 276 298 309 322
258 258 255 256 261 261 259 258 256 255 251 256 264 261 254 249 243 239 240 250 252 246 248 244 247 258 251 247 250 249 248 247 246 245 242 245 245 246 250 254 260 262 264 265 266 266 265 265 267 270 275 278 282 285 286 290 297 302 304 307 311 315 313 300 264 235 227 237 247 251 246 233 228 230 233 231 225 230 234 238 246 258 280 293 307
269 257 253 251 256 257 255 258 260 261 261 263 270 274 271 265 267 253 246 262 259 250 261 248 242 251 255 260 263 258 258 256 252 246 242 246 247 246 247 251 258 261 263 265 267 270 269 266 265 268 272 274 278 281 283 287 291 294 295 297 302 309 313 311 289 252 229 232 246 252 253 246 234 228 231 233 226 226 232 234 239 249 265 279 292
24 322 268 253 253 254 251 251 254 262 265 268 274 280 287 276 276 281 274 282 265 255 284 265 242 245 253 272 278 259 255 260 264 259 247 247 249 247 247 250 256 260 265 267 269 271 271 269 267 267 270 272 275 277 280 282 285 288 289 291 296 303 309 311 307 281 244 230 240 250 254 256 248 235 231 233 229 226 230 234 235 242 254 266 279
57 54 47 16 259 253 252 249 248 254 262 270 277 277 283 279 277 287 291 297 283 266 275 272 262 267 268 276 281 274 275 277 280 279 262 248 245 244 245 248 253 259 265 269 270 271 272 271 270 270 271 272 274 275 277 279 281 283 286 288 290 294 301 305 306 304 274 235 233 245 251 254 255 246 237 235 233 228 229 233 234 238 247 255 266
69 67 63 60 61 59 18 247 249 248 252 258 264 268 270 271 272 276 279 284 283 277 276 275 273 275 274 273 271 271 279 285 291 296 289 267 250 241 241 246 251 257 262 265 268 270 271 272 271 271 271 273 275 276 277 278 279 280 283 284 285 287 292 296 296 300 301 252 232 238 247 250 253 252 245 241 237 232 229 231 234 236 242 247 256
76 76 72 68 66 65 69 74 81 112 220 242 250 258 263 265 266 267 270 273 275 276 277 278 274 271 269 268 268 268 272 280 285 291 297 289 276 261 247 244 249 256 261 263 264 265 267 269 270 270 270 272 274 276 277 277 278 279 280 281 281 281 285 290 289 288 297 279 237 236 242 248 251 252 251 248 242 235 230 231 233 235 238 241 248
80 82 81 77 73 69 68 70 72 76 77 78 52 267 263 265 263 261 263 264 267 269 270 272 272 272 272 268 266 267 268 272 276 279 287 293 290 282 269 259 254 253 258 263 265 266 266 266 267 268 268 270 271 274 274 274 276 278 279 280 279 279 281 284 285 282 284 285 257 241 241 246 250 250 249 249 247 240 232 230 233 235 235 237 243
83 87 89 85 81 76 68 63 60 58 58 55 38 4 324 289 274 265 260 258 260 262 262 263 265 268 272 272 270 269 270 272 277 281 286 292 292 290 287 280 272 263 258 259 261 262 263 263 264 265 266 267 268 269 269 269 272 275 276 278 279 277 279 281 281 279 276 275 272 259 248 246 248 249 248 248 248 243 235 231 232 234 234 234 238
85 90 93 91 85 77 68 61 51 45 38 24 11 357 346 334 314 293 274 263 258 257 257 258 259 261 264 267 269 270 271 272 275 278 282 288 290 290 289 288 286 278 268 264 263 260 259 259 260 263 265 268 268 267 265 266 268 271 273 277 278 276 277 279 278 276 273 271 268 268 261 250 247 245 246 249 250 243 237 233 232 232 232 232 234
112 95 93 92 79 61 49 41 31 24 18 7 0 355 352 348 341 330 312 291 274 264 259 256 256 257 258 260 263 265 267 267 270 273 274 277 281 285 288 289 290 285 279 277 273 266 262 260 260 261 264 268 270 268 266 264 265 267 270 274 276 275 274 278 278 274 271 268 266 266 263 256 249 244 243 250 252 246 239 234 232 232 230 230 232
216 196 136 87 20 15 11 10 8 3 358 355 352 349 349 346 343 340 332 319 302 287 276 269 264 261 259 257 257 259 262 263 266 269 270 272 275 282 288 292 291 289 288 286 279 273 266 261 261 264 265 265 266 268 268 266 264 265 268 270 273 274 274 276 277 274 270 267 265 265 262 258 254 248 246 248 249 249 243 236 233 232 229 229 230
258 263 272 299 323 338 347 348 346 341 340 342 342 341 341 339 338 340 337 328 316 305 294 287 281 276 271 266 261 258 258 259 262 265 267 270 274 280 286 289 290 290 291 287 284 283 276 268 267 271 270 266 261 262 267 269 267 264 265 268 271 273 272 273 274 272 269 267 265 264 263 257 252 252 252 247 245 248 245 236 235 234 229 228 231
267 274 285 296 308 318 326 327 324 324 328 331 331 331 331 331 332 336 337 332 323 312 302 293 288 284 281 277 273 268 264 261 260 261 265 267 270 275 281 288 291 290 289 287 285 285 284 282 280 277 275 270 263 260 265 271 271 268 267 267 269 271 272 270 270 268 266 265 264 265 264 259 250 249 252 250 248 251 248 237 235 236 231 229 232
266 273 280 288 297 307 313 313 313 317 320 322 323 323 324 327 329 331 332 329 325 320 311 300 291 285 282 279 278 277 275 272 266 263 263 264 266 268 272 279 287 290 290 290 287 283 282 286 288 285 282 281 274 268 269 272 270 270 270 267 267 271 275 272 267 264 264 263 263 264 264 261 253 247 248 250 251 253 252 243 236 236 235 231 232
263 268 272 279 288 296 302 304 308 312 314 315 317 319 321 324 328 330 329 326 323 321 316 309 301 291 283 279 278 279 281 279 274 268 264 262 262 263 266 269 276 284 289 289 287 283 279 282 287 289 290 292 288 280 276 276 273 271 269 267 268 271 276 275 267 260 261 262 262 263 264 261 256 251 249 249 250 253 253 248 240 237 237 234 232
256 259 264 270 278 286 292 297 302 304 305 308 312 314 317 322 324 326 326 324 321 320 316 311 307 299 291 283 278 278 281 281 276 269 265 264 263 260 261 263 267 273 280 284 285 282 278 278 280 284 287 289 290 283 276 275 275 272 268 266 267 268 270 270 264 257 256 260 262 262 262 262 259 255 253 252 251 251 251 248 244 238 237 236 233
251 254 257 263 271 279 286 291 293 295 299 303 306 309 314 318 320 321 321 319 318 318 318 314 310 304 298 292 285 279 278 279 277 272 265 262 263 262 260 259 261 266 271 278 284 284 282 282 280 279 281 283 283 280 273 269 267 265 265 265 265 263 262 262 261 258 255 257 261 261 261 262 261 257 255 254 252 252 251 249 245 238 235 236 235
248 250 252 257 264 272 279 284 286 290 294 297 302 309 314 317 318 318 317 316 314 315 316 316 315 310 302 296 290 285 281 279 277 275 270 263 261 261 261 259 258 260 265 271 278 281 282 286 286 280 277 278 279 277 275 274 271 268 267 266 263 259 254 253 255 257 255 256 260 261 261 262 261 257 256 254 253 253 252 251 245 236 232 234 235
245 247 249 253 259 265 272 277 282 285 288 295 303 310 314 316 317 317 316 314 312 312 313 314 315 314 309 301 294 288 284 281 279 277 275 270 264 260 259 261 260 259 263 267 274 277 275 278 286 285 278 276 276 275 276 277 276 275 274 271 266 262 258 254 255 256 256 257 259 261 262 262 258 256 255 254 253 253 253 251 242 234 231 232 234
243 244 247 251 255 262 268 273 277 281 286 296 305 310 314 316 317 317 316 314 313 314 314 314 314 313 310 306 300 294 287 282 279 278 277 276 273 268 261 260 261 260 262 266 272 276 273 272 280 287 285 282 278 274 275 277 275 275 274 272 271 268 264 263 264 262 258 258 260 261 262 260 255 252 253 253 252 252 253 251 242 234 231 231 232
240 242 244 249 254 259 265 270 274 279 287 297 305 310 313 315 315 314 314 313 314 314 314 314 314 312 310 306 303 300 295 287 281 278 278 277 277 276 271 264 262 260 260 264 270 276 275 271 273 281 287 288 285 278 275 275 274 272 270 269 271 270 266 264 264 260 255 256 261 264 263 260 253 249 249 251 250 250 251 250 243 234 230 231 231
236 238 242 246 251 256 261 267 273 280 290 300 307 312 312 311 310 309 309 310 310 310 309 309 309 309 307 304 302 301 298 294 288 283 280 278 277 277 276 273 269 264 260 261 265 270 274 271 268 271 277 282 284 283 279 275 271 269 268 265 266 269 268 266 263 259 256 254 257 261 263 260 255 248 246 249 249 247 248 249 244 236 231 231 231
234 237 241 245 247 251 257 264 272 283 294 304 308 309 308 306 306 307 307 307 305 304 303 303 303 302 301 299 296 295 294 292 291 289 285 281 278 276 276 275 274 271 266 262 262 263 268 269 266 266 268 270 273 277 280 279 274 270 268 265 264 265 267 267 267 264 260 256 253 255 257 258 254 247 243 245 247 244 244 246 244 237 231 232 232
233 237 239 241 243 248 255 264 275 288 299 305 306 305 305 305 306 306 305 303 301 301 301 301 300 299 298 296 291 287 284 284 285 286 285 284 280 277 275 274 273 273 271 267 265 263 264 266 265 265 266 268 270 271 274 281 280 274 272 271 267 263 263 264 265 266 264 261 258 256 255 255 254 246 240 242 245 243 240 242 242 238 233 232 234
231 233 234 236 241 248 257 268 280 292 300 304 305 306 307 307 306 304 302 300 300 300 301 301 301 299 298 297 292 285 279 277 277 279 280 280 279 277 275 273 272 272 271 270 268 266 266 266 265 263 264 267 270 270 271 276 279 279 278 274 268 264 263 264 266 269 268 265 262 260 257 255 257 251 241 240 244 242 238 238 239 238 235 233 233
224 226 229 233 241 250 260 272 285 294 300 304 306 306 305 304 301 299 299 299 299 300 301 301 300 300 299 298 295 289 281 276 273 273 274 275 276 276 275 274 272 270 270 270 269 268 268 268 266 263 263 265 267 268 268 269 272 277 281 281 277 273 272 271 271 270 268 266 263 262 260 258 259 254 242 239 242 242 238 238 238 238 237 235 234
220 222 226 234 243 253 264 276 286 292 296 300 302 300 298 297 296 296 296 297 298 299 300 300 299 299 298 297 295 291 286 280 275 272 271 270 271 272 273 273 273 271 269 268 268 268 268 268 266 264 263 263 265 267 267 265 266 271 277 285 286 283 282 279 275 270 268 267 264 261 260 260 261 258 246 240 241 240 237 237 239 238 236 235 235
217 221 228 238 248 258 270 278 282 285 289 294 295 293 293 293 293 293 294 295 297 298 299 300 299 298 297 296 294 290 287 283 280 276 273 270 269 268 269 269 270 270 269 267 266 266 267 267 266 265 264 263 263 265 266 265 264 266 271 277 281 283 286 285 280 274 269 266 264 260 258 259 260 259 252 245 245 242 237 236 239 239 236 233 233
217 223 232 242 253 263 269 271 273 278 285 291 292 291 291 290 290 291 293 295 296 298 298 299 298 298 297 296 294 291 287 284 281 279 277 275 272 269 267 265 265 266 267 267 266 265 265 266 266 265 264 263 262 263 265 265 264 264 266 271 275 279 285 288 284 279 275 272 268 263 260 261 262 260 255 250 248 247 243 240 240 240 238 234 233
220 227 235 243 252 258 261 265 271 280 287 290 290 290 289 289 290 292 294 295 296 296 297 297 297 297 296 295 294 292 290 287 284 281 279 277 275 273 270 266 263 262 261 262 263 264 264 265 265 264 262 263 262 262 263 265 265 264 264 266 270 275 279 283 283 281 281 279 274 268 264 263 263 262 259 254 250 250 249 247 244 242 240 236 234
223 230 237 243 249 254 260 268 276 282 286 288 288 289 290 292 294 296 296 297 297 296 296 295 295 294 294 294 293 291 290 289 287 284 281 279 277 275 273 271 267 264 261 260 259 259 261 262 263 263 262 262 262 262 263 266 266 265 264 263 265 269 273 277 280 282 283 279 273 269 267 265 263 263 262 259 255 252 251 251 249 245 242 237 237
225 233 239 245 250 258 266 273 279 282 285 286 289 292 295 297 298 298 298 298 297 296 295 294 294 293 292 292 290 289 288 287 286 285 283 281 279 276 274 272 270 268 266 264 261 258 257 257 259 260 261 261 262 262 262 263 264 263 262 261 262 263 266 270 276 279 279 278 274 268 264 263 262 263 265 263 259 255 253 253 253 249 245 241 239
228 236 242 249 255 264 271 277 280 283 286 289 293 296 298 299 299 298 298 297 296 295 294 293 293 292 291 290 288 287 286 285 284 283 283 282 281 279 276 274 273 271 269 267 265 263 259 256 256 257 258 259 260 260 260 260 261 261 260 259 259 261 261 262 265 268 270 275 275 268 263 262 262 264 268 268 263 258 255 255 255 252 247 242 240
231 238 245 253 261 269 274 279 282 286 290 294 297 299 300 302 302 301 299 298 296 295 294 293 292 291 290 288 287 285 284 283 282 281 281 281 281 280 278 277 276 274 271 269 268 267 263 260 258 256 257 257 257 258 258 258 258 258 258 257 255 255 259 260 261 262 263 267 271 269 266 266 266 268 271 269 263 259 256 255 255 252 248 244 240
230 239 250 261 269 274 278 283 288 293 296 298 300 302 305 308 308 307 305 303 300 299 298 297 295 293 290 288 285 284 283 282 282 281 280 279 279 279 279 279 278 276 273 272 271 270 268 265 262 259 257 256 255 255 255 255 255 255 256 256 252 249 252 256 258 260 261 262 263 266 266 267 269 270 270 267 264 260 257 256 255 253 249 244 239
232 247 262 270 276 282 288 293 297 299 299 301 303 307 312 315 315 313 311 308 306 304 303 301 298 296 293 290 287 285 283 283 282 281 279 277 276 276 277 277 277 276 275 275 274 273 272 270 266 263 259 256 255 253 252 253 254 253 253 253 252 250 249 252 254 258 260 259 256 257 261 263 266 268 266 263 263 262 260 259 258 255 250 245 239
244 255 267 275 282 290 297 300 302 302 302 306 310 315 320 321 320 318 316 313 311 309 307 304 301 298 295 293 291 288 286 285 284 282 279 276 273 273 273 273 273 273 274 276 276 276 277 275 271 267 262 259 256 254 252 251 251 251 251 251 251 249 247 249 251 253 256 256 252 251 255 259 264 266 263 260 259 260 261 261 259 256 252 247 243
Height
1536 1536 1536 1537 1537 1536 1536 1535 1535 1536 1538 1539 1539 1540 1540 1540 1540 1541 1542 1543 1543 1544 1545 1546 1547 1548 1549 1551 1552 1552 1553 1553 1553 1554 1555 1555 1556 1557 1557 1558 1559 1559 1559 1559 1559 1559 1560 1560 1560 1560 1560 1560 1561 1561 1562 1562 1562 1562 1563 1563 1564 1564 1564 1564 1564 1564 1564 1564 1564 1564 1564 1564 1563 1562 1562 1561 1561 1560 1560 1558 1557 1556 1554 1552 1551
1535 1535 1535 1535 1535 1535 1534 1534 1534 1536 1537 1538 1539 1539 1539 1540 1540 1541 1542 1543 1543 1544 1545 1545 1546 1547 1549 1550 1551 1552 1553 1553 1553 1554 1554 1555 1556 1556 1557 1558 1558 1558 1559 1559 1559 1559 1559 1560 1560 1560 1560 1560 1560 1560 1561 1561 1561 1562 1562 1563 1563 1563 1564 1564 1564 1564 1565 1564 1564 1564 1564 1564 1563 1563 1562 1562 1562 1561 1560 1559 1558 1556 1555 1553 1552
1534 1534 1534 1534 1534 1533 1532 1532 1534 1535 1535 1537 1538 1539 1539 1540 1540 1541 1542 1543 1543 1543 1544 1544 1545 1546 1547 1549 1550 1551 1552 1553 1553 1554 1554 1555 1555 1556 1557 1557 1558 1558 1558 1559 1559 1559 1559 1559 1559 1560 1559 1560 1560 1559 1560 1560 1561 1561 1561 1562 1562 1563 1563 1563 1563 1564 1564 1564 1564 1564 1564 1564 1564 1563 1563 1562 1562 1562 1561 1560 1559 1557 1556 1554 1553
1533 1533 1532 1532 1532 1532 1532 1531 1532 1533 1534 1536 1537 1538 1539 1539 1540 1540 1541 1542 1542 1542 1543 1543 1544 1545 1546 1548 1549 1550 1551 1552 1552 1553 1554 1554 1554 1555 1556 1557 1557 1557 1558 1558 1558 1558 1558 1558 1559 1559 1559 1559 1559 1559 1559 1559 1560 1560 1561 1561 1562 1562 1563 1563 1563 1563 1564 1564 1564 1564 1564 1564 1564 1563 1563 1563 1562 1562 1561 1561 1559 1558 1556 1555 1554
1532 1532 1531 1531 1531 1532 1532 1532 1531 1531 1532 1535 1536 1537 1538 1539 1540 1540 1541 1541 1542 1542 1542 1543 1543 1544 1545 1547 1548 1549 1550 1551 1552 1553 1553 1553 1554 1554 1555 1556 1556 1557 1557 1557 1557 1558 1558 1558 1558 1559 1559 1559 1559 1559 1558 1559 1559 1559 1560 1560 1561 1561 1562 1562 1562 1563 1563 1563 1564 1564 1564 1563 1563 1563 1563 1563 1563 1562 1562 1561 1560 1559 1557 1556 1555
1531 1530 1529 1530 1531 1533 1532 1532 1531 1531 1532 1534 1535 1536 1537 1537 1538 1540 1541 1541 1541 1542 1542 1542 1543 1544 1545 1546 1547 1548 1549 1550 1551 1552 1553 1553 1553 1554 1554 1555 1556 1556 1556 1556 1557 1557 1557 1557 1557 1558 1558 1558 1558 1558 1558 1558 1558 1559 1559 1559 1560 1561 1561 1561 1562 1562 1562 1563 1563 1563 1563 1563 1563 1563 1563 1563 1563 1563 1562 1561 1560 1559 1558 1557 1556
1529 1528 1528 1530 1532 1533 1532 1531 1531 1531 1532 1533 1534 1535 1536 1537 1537 1539 1540 1541 1541 1541 1541 1542 1542 1543 1544 1545 1546 1547 1548 1549 1550 1551 1552 1552 1552 1553 1553 1554 1555 1555 1555 1556 1556 1556 1557 1557 1557 1557 1557 1557 1557 1557 1557 1557 1557 1558 1558 1558 1559 1560 1560 1560 1561 1561 1561 1562 1562 1562 1563 1563 1563 1563 1563 1563 1563 1563 1562 1562 1561 1560 1559 1558 1556
1528 1528 1528 1530 1531 1531 1531 1531 1532 1532 1531 1531 1532 1534 1534 1535 1537 1538 1539 1540 1541 1541 1541 1541 1541 1542 1543 1544 1545 1546 1547 1547 1548 1549 1550 1551 1551 1552 1552 1553 1554 1554 1555 1555 1555 1556 1556 1556 1556 1556 1556 1556 1556 1556 1556 1556 1556 1557 1557 1557 1558 1558 1559 1559 1559 1560 1560 1561 1561 1561 1562 1562 1562 1563 1563 1563 1563 1563 1562 1562 1561 1560 1559 1558 1557
1527 1527 1528 1529 1529 1530 1530 1532 1533 1532 1530 1530 1531 1531 1532 1533 1536 1537 1538 1538 1539 1539 1539 1540 1540 1541 1541 1542 1543 1544 1545 1546 1547 1548 1549 1550 1550 1551 1551 1552 1553 1553 1554 1554 1554 1555 1555 1555 1555 1555 1555 1555 1556 1556 1556 1556 1556 1556 1556 1556 1556 1557 1558 1558 1558 1559 1559 1560 1560 1561 1561 1561 1562 1562 1563 1563 1563 1563 1562 1562 1561 1560 1560 1559 1558
1527 1527 1528 1528 1529 1529 1530 1531 1532 1530 1530 1530 1530 1530 1531 1532 1534 1535 1536 1537 1537 1537 1538 1538 1539 1540 1540 1541 1542 1543 1544 1545 1546 1547 1548 1548 1549 1550 1550 1551 1552 1552 1553 1553 1553 1554 1554 1555 1554 1554 1554 1555 1555 1555 1555 1555 1555 1555 1555 1555 1555 1556 1556 1557 1557 1558 1558 1558 1559 1560 1560 1561 1561 1561 1562 1562 1563 1563 1562 1562 1561 1561 1560 1559 1558
1526 1526 1526 1527 1528 1528 1529 1530 1529 1528 1529 1529 1529 1530 1531 1532 1533 1534 1535 1536 1536 1537 1537 1537 1538 1539 1539 1540 1540 1542 1543 1544 1545 1546 1546 1547 1548 1548 1549 1550 1550 1551 1551 1552 1552 1552 1553 1553 1553 1553 1553 1554 1554 1554 1555 1555 1555 1555 1555 1555 1555 1555 1555 1556 1556 1557 1557 1557 1558 1558 1559 1560 1560 1561 1561 1562 1562 1562 1562 1561 1561 1561 1560 1559 1559
1526 1525 1526 1526 1527 1527 1528 1529 1527 1526 1527 1529 1529 1529 1530 1531 1532 1533 1534 1535 1536 1536 1537 1537 1536 1537 1538 1539 1540 1541 1542 1543 1543 1544 1545 1545 1546 1547 1547 1548 1549 1549 1550 1550 1551 1551 1551 1552 1552 1552 1552 1553 1553 1553 1554 1554 1554 1554 1554 1554 1554 1554 1554 1555 1555 1556 1556 1556 1557 1557 1558 1559 1559 1560 1560 1561 1561 1561 1561 1561 1561 1560 1560 1559 1559
1525 1525 1525 1525 1526 1527 1527 1527 1526 1525 1526 1528 1528 1528 1530 1530 1530 1531 1533 1535 1535 1536 1537 1536 1536 1536 1537 1538 1539 1539 1540 1541 1542 1542 1543 1544 1544 1545 1546 1546 1547 1547 1548 1548 1549 1549 1550 1550 1551 1551 1551 1552 1552 1552 1553 1553 1554 1554 1554 1554 1554 1553 1553 1553 1554 1555 1555 1555 1555 1556 1557 1558 1558 1559 1559 1560 1560 1560 1561 1560 1560 1560 1560 1559 1559
1524 1524 1524 1524 1525 1526 1526 1526 1526 1525 1526 1527 1527 1528 1528 1528 1529 1531 1532 1533 1534 1535 1536 1536 1536 1536 1537 1537 1538 1538 1539 1540 1540 1541 1542 1542 1543 1543 1544 1544 1545 1545 1546 1547 1547 1548 1548 1549 1549 1550 1550 1550 1551 1551 1552 1552 1553 1553 1553 1553 1553 1552 1552 1552 1553 1553 1555 1555 1555 1555 1556 1557 1557 1558 1558 1559 1559 1559 1560 1560 1560 1560 1559 1559 1558
1523 1523 1523 1523 1524 1525 1525 1526 1526 1526 1527 1527 1527 1527 1527 1527 1528 1530 1531 1532 1533 1534 1535 1535 1535 1536 1537 1537 1536 1537 1537 1538 1539 1539 1540 1541 1541 1541 1542 1542 1542 1544 1544 1545 1545 1546 1546 1547 1548 1548 1548 1549 1549 1550 1550 1551 1551 1552 1552 1552 1552 1552 1551 1551 1552 1552 1553 1554 1554 1554 1555 1556 1556 1557 1557 1558 1558 1558 1559 1559 1559 1559 1559 1559 1558
1523 1523 1523 1523 1523 1524 1524 1525 1525 1526 1526 1527 1527 1527 1527 1528 1528 1529 1529 1531 1532 1534 1535 1534 1534 1535 1536 1535 1535 1536 1536 1536 1537 1537 1539 1539 1539 1539 1540 1540 1541 1541 1542 1542 1543 1543 1544 1545 1546 1546 1547 1547 1547 1548 1548 1549 1550 1550 1551 1551 1551 1551 1551 1551 1551 1551 1552 1553 1553 1553 1554 1555 1555 1556 1556 1557 1557 1557 1558 1558 1558 1558 1558 1558 1557
1523 1522 1522 1523 1523 1523 1524 1524 1525 1525 1526 1526 1527 1527 1528 1528 1529 1529 1529 1529 1531 1533 1533 1534 1533 1533 1533 1533 1534 1534 1534 1534 1535 1535 1536 1537 1537 1537 1538 1539 1539 1540 1540 1540 1541 1541 1542 1543 1543 1544 1545 1545 1546 1546 1546 1547 1548 1548 1549 1549 1550 1550 1550 1550 1550 1550 1550 1551 1552 1553 1553 1554 1555 1555 1555 1556 1556 1556 1557 1557 1557 1558 1557 1557 1557
1523 1523 1523 1522 1522 1523 1523 1524 1524 1525 1525 1526 1526 1527 1527 1528 1528 1528 1528 1529 1530 1530 1531 1531 1532 1531 1532 1532 1533 1533 1532 1533 1534 1533 1534 1534 1534 1535 1536 1537 1538 1538 1538 1538 1539 1539 1540 1540 1541 1542 1543 1543 1544 1544 1544 1545 1546 1546 1547 1548 1548 1548 1549 1549 1549 1549 1550 1550 1551 1551 1551 1552 1553 1554 1555 1555 1555 1555 1556 1556 1556 1557 1557 1556 1556
1524 1524 1523 1523 1523 1523 1523 1523 1524 1525 1525 1526 1526 1527 1527 1527 1527 1527 1528 1528 1529 1529 1530 1530 1530 1530 1530 1531 1531 1532 1532 1532 1533 1533 1532 1532 1532 1533 1534 1535 1535 1536 1536 1536 1537 1537 1537 1538 1538 1539 1540 1541 1541 1542 1542 1543 1543 1544 1545 1546 1547 1547 1547 1548 1548 1549 1549 1549 1549 1550 1551 1551 1551 1553 1554 1554 1554 1554 1554 1555 1555 1556 1556 1555 1555
1526 1525 1525 1524 1524 1523 1523 1524 1524 1524 1525 1525 1526 1526 1526 1526 1526 1527 1527 1527 1527 1528 1529 1529 1529 1529 1530 1530 1530 1531 1531 1531 1532 1532 1532 1530 1530 1531 1532 1532 1533 1533 1534 1534 1534 1535 1535 1535 1536 1537 1537 1538 1539 1539 1540 1540 1541 1542 1543 1544 1544 1545 1546 1546 1547 1547 1548 1548 1548 1549 1550 1550 1550 1551 1552 1553 1553 1554 1553 1554 1554 1554 1555 1555 1554
1526 1526 1526 1525 1525 1525 1524 1524 1524 1525 1525 1525 1526 1526 1526 1526 1526 1527 1527 1527 1527 1527 1528 1528 1528 1528 1529 1529 1529 1529 1530 1530 1531 1531 1531 1530 1528 1529 1530 1530 1530 1531 1532 1533 1533 1533 1533 1533 1534 1534 1534 1535 1536 1537 1537 1538 1538 1539 1540 1541 1542 1543 1544 1544 1545 1545 1546 1547 1547 1548 1548 1548 1548 1548 1550 1551 1552 1553 1553 1552 1553 1553 1553 1553 1553
1527 1526 1527 1526 1526 1526 1525 1525 1525 1525 1525 1526 1526 1526 1526 1526 1526 1526 1526 1526 1526 1526 1526 1526 1527 1527 1527 1527 1528 1528 1528 1529 1529 1529 1529 1529 1528 1527 1528 1528 1527 1527 1529 1531 1531 1531 1531 1531 1531 1531 1532 1532 1533 1534 1534 1535 1536 1536 1537 1539 1540 1541 1541 1542 1542 1543 1544 1545 1545 1546 1547 1547 1547 1547 1547 1549 1550 1551 1552 1551 1552 1552 1552 1552 1552
1527 1527 1527 1527 1527 1527 1526 1526 1525 1525 1525 1526 1526 1526 1526 1525 1525 1525 1525 1525 1525 1524 1524 1525 1525 1525 1525 1526 1526 1526 1527 1527 1527 1528 1528 1528 1527 1527 1526 1526 1525 1524 1525 1527 1528 1528 1528 1529 1529 1529 1530 1530 1531 1531 1532 1532 1533 1534 1535 1536 1537 1538 1539 1540 1540 1541 1542 1542 1543 1544 1545 1545 1545 1545 1545 1546 1548 1549 1550 1550 1550 1551 1551 1551 1551
1527 1527 1527 1527 1527 1527 1526 1526 1526 1525 1525 1525 1525 1525 1525 1524 1524 1523 1523 1523 1522 1522 1522 1523 1523 1523 1523 1524 1524 1524 1525 1525 1525 1526 1526 1527 1526 1525 1524 1524 1523 1521 1522 1523 1523 1524 1525 1525 1526 1527 1528 1528 1529 1529 1529 1529 1530 1531 1532 1533 1534 1535 1536 1537 1538 1538 1539 1540 1541 1541 1542 1543 1543 1544 1543 1544 1545 1547 1548 1549 1549 1549 1550 1550 1550
1527 1527 1527 1527 1527 1526 1526 1526 1525 1525 1525 1524 1524 1524 1523 1523 1523 1522 1521 1521 1520 1520 1520 1520 1520 1520 1521 1522 1522 1522 1523 1523 1523 1524 1524 1525 1524 1523 1522 1521 1520 1519 1519 1520 1520 1520 1521 1522 1523 1524 1525 1526 1526 1527 1527 1527 1527 1528 1529 1530 1531 1532 1534 1535 1535 1536 1537 1537 1538 1539 1539 1540 1541 1541 1542 1542 1543 1544 1545 1547 1548 1548 1548 1549 1549
1525 1526 1526 1526 1526 1526 1526 1525 1525 1525 1524 1524 1523 1523 1522 1522 1521 1521 1520 1519 1519 1518 1518 1518 1518 1518 1518 1519 1519 1520 1520 1521 1521 1521 1522 1522 1522 1521 1520 1519 1518 1517 1517 1518 1518 1517 1517 1518 1520 1521 1521 1522 1523 1524 1524 1525 1525 1526 1527 1527 1528 1529 1530 1532 1533 1533 1534 1534 1535 1536 1537 1537 1538 1539 1540 1540 1540 1541 1543 1545 1546 1546 1547 1547 1548
1524 1524 1524 1524 1525 1525 1524 1525 1524 1524 1524 1523 1523 1522 1522 1521 1520 1520 1519 1518 1518 1517 1516 1516 1516 1516 1516 1516 1516 1517 1517 1518 1518 1519 1519 1519 1519 1519 1519 1517 1516 1515 1514 1515 1515 1515 1515 1515 1516 1517 1518 1519 1520 1521 1521 1522 1523 1523 1524 1524 1524 1525 1527 1528 1529 1530 1531 1532 1533 1533 1534 1535 1535 1536 1537 1538 1538 1539 1541 1542 1544 1544 1545 1546 1546
1523 1523 1523 1523 1523 1523 1523 1523 1523 1523 1523 1522 1522 1521 1521 1520 1519 1519 1518 1517 1516 1516 1515 1514 1514 1514 1514 1514 1513 1514 1514 1515 1515 1516 1516 1516 1517 1517 1517 1517 1515 1513 1512 1511 1511 1512 1513 1513 1513 1514 1516 1516 1517 1518 1519 1519 1520 1521 1522 1522 1522 1522 1523 1524 1526 1527 1528 1529 1530 1530 1531 1532 1533 1533 1534 1535 1535 1536 1538 1540 1541 1542 1543 1544 1544
1522 1522 1522 1522 1522 1522 1522 1522 1521 1521 1521 1520 1520 1519 1519 1518 1518 1517 1517 1516 1515 1514 1514 1513 1512 1512 1512 1512 1512 1511 1511 1512 1512 1512 1513 1513 1514 1514 1515 1515 1515 1513 1511 1509 1508 1508 1510 1511 1511 1511 1513 1514 1514 1515 1516 1516 1517 1518 1519 1519 1519 1520 1521 1521 1522 1523 1524 1526 1526 1527 1528 1529 1530 1531 1531 1532 1533 1534 1535 1537 1539 1540 1541 1542 1542
1520 1520 1521 1521 1521 1521 1521 1520 1520 1519 1519 1519 1518 1518 1517 1516 1516 1515 1514 1514 1513 1513 1512 1512 1511 1510 1510 1510 1510 1509 1509 1509 1509 1509 1510 1510 1511 1511 1512 1512 1513 1512 1511 1508 1505 1505 1507 1508 1509 1509 1510 1511 1512 1512 1513 1513 1514 1515 1516 1516 1517 1517 1518 1519 1519 1520 1521 1522 1523 1524 1525 1526 1527 1528 1528 1529 1530 1531 1532 1534 1535 1537 1538 1539 1540
1519 1519 1520 1520 1520 1520 1519 1519 1519 1518 1517 1517 1517 1516 1515 1515 1514 1513 1513 1512 1511 1511 1510 1510 1509 1509 1508 1507 1507 1507 1507 1507 1507 1507 1507 1507 1508 1508 1509 1509 1510 1509 1509 1508 1504 1502 1504 1505 1506 1507 1508 1508 1509 1509 1510 1510 1511 1511 1512 1513 1514 1514 1515 1515 1516 1517 1517 1518 1520 1521 1522 1523 1524 1525 1525 1526 1527 1528 1529 1530 1532 1533 1535 1536 1537
1517 1517 1518 1518 1518 1518 1518 1518 1517 1517 1516 1515 1515 1514 1513 1513 1512 1511 1511 1510 1509 1508 1508 1508 1507 1507 1506 1505 1505 1505 1505 1505 1504 1504 1504 1504 1505 1505 1505 1506 1506 1506 1507 1506 1503 1500 1501 1502 1502 1503 1505 1505 1506 1506 1507 1507 1508 1508 1509 1509 1510 1511 1511 1511 1512 1513 1514 1515 1516 1517 1518 1519 1520 1521 1522 1523 1524 1525 1526 1527 1528 1530 1531 1533 1534
1515 1515 1516 1516 1517 1517 1516 1516 1516 1515 1515 1514 1513 1512 1511 1511 1510 1509 1508 1508 1507 1506 1506 1505 1505 1504 1504 1503 1503 1503 1503 1502 1502 1502 1502 1502 1501 1502 1502 1502 1503 1503 1503 1503 1501 1498 1497 1498 1499 1499 1500 1502 1501 1502 1503 1504 1505 1505 1506 1506 1507 1507 1507 1508 1508 1509 1510 1511 1512 1513 1514 1515 1517 1518 1519 1520 1521 1521 1523 1524 1525 1527 1528 1530 1532
1512 1513 1514 1514 1515 1515 1514 1514 1514 1514 1513 1512 1511 1510 1510 1509 1508 1507 1506 1505 1505 1504 1503 1503 1502 1502 1501 1501 1500 1500 1500 1499 1499 1499 1499 1499 1499 1498 1499 1499 1499 1500 1500 1500 1499 1497 1495 1495 1496 1496 1496 1497 1497 1498 1500 1500 1501 1502 1502 1503 1503 1503 1504 1504 1504 1505 1506 1507 1508 1509 1511 1512 1513 1514 1516 1517 1518 1518 1519 1520 1522 1523 1525 1527 1529
1509 1510 1511 1512 1512 1512 1512 1512 1512 1512 1511 1510 1509 1509 1508 1507 1506 1506 1505 1504 1503 1502 1501 1500 1500 1499 1499 1498 1498 1497 1497 1496 1496 1496 1496 1496 1496 1495 1495 1495 1495 1495 1496 1496 1496 1494 1493 1492 1493 1493 1493 1494 1494 1494 1496 1496 1497 1497 1498 1499 1499 1499 1500 1500 1501 1501 1502 1503 1504 1505 1507 1508 1509 1510 1512 1513 1514 1515 1516 1517 1518 1520 1522 1524 1525
1506 1508 1508 1509 1509 1509 1510 1510 1509 1509 1509 1508 1508 1507 1506 1506 1505 1504 1503 1502 1501 1500 1499 1499 1498 1497 1496 1496 1495 1495 1494 1493 1493 1493 1492 1492 1492 1492 1492 1492 1492 1491 1492 1492 1492 1491 1490 1489 1489 1490 1490 1490 1490 1490 1491 1492 1493 1493 1493 1494 1495 1496 1496 1496 1497 1498 1498 1499 1500 1501 1502 1504 1505 1506 1508 1509 1511 1512 1513 1514 1515 1516 1518 1520 1522
1504 1505 1506 1506 1506 1507 1507 1507 1507 1507 1506 1506 1506 1505 1505 1504 1503 1502 1501 1500 1499 1499 1498 1497 1496 1495 1494 1493 1493 1492 1491 1490 1490 1489 1489 1489 1488 1488 1488 1488 1488 1488 1488 1488 1488 1487 1487 1485 1485 1485 1486 1486 1487 1487 1488 1488 1488 1489 1489 1490 1491 1492 1492 1493 1493 1494 1494 1494 1495 1496 1498 1499 1500 1501 1503 1505 1507 1508 1509 1511 1512 1513 1515 1517 1519
1501 1502 1503 1503 1504 1504 1505 1505 1505 1505 1504 1504 1504 1503 1503 1502 1501 1500 1499 1498 1497 1496 1495 1494 1493 1492 1491 1490 1489 1489 1488 1487 1487 1486 1486 1485 1485 1484 1484 1484 1484 1484 1484 1484 1484 1483 1483 1482 1481 1481 1482 1483 1483 1484 1485 1485 1485 1485 1485 1486 1486 1487 1488 1488 1489 1490 1490 1490 1491 1492 1493 1494 1495 1497 1499 1502 1503 1504 1505 1507 1508 1509 1511 1513 1515
1499 1500 1500 1501 1501 1502 1502 1502 1502 1502 1502 1502 1502 1501 1500 1499 1498 1497 1496 1495 1494 1493 1491 1490 1489 1489 1488 1487 1486 1485 1484 1484 1483 1483 1482 1482 1481 1481 1480 1480 1480 1480 1480 1480 1480 1479 1479 1478 1478 1478 1478 1478 1479 1480 1482 1482 1482 1481 1482 1482 1482 1483 1484 1484 1485 1486 1487 1487 1487 1488 1489 1490 1491 1493 1495 1498 1499 1500 1501 1503 1504 1506 1507 1509 1511
1496 1497 1497 1498 1499 1499 1500 1500 1500 1500 1500 1500 1499 1499 1498 1497 1496 1494 1493 1492 1490 1489 1488 1486 1485 1484 1483 1483 1482 1481 1480 1479 1479 1479 1478 1478 1477 1476 1476 1477 1477 1476 1476 1476 1476 1475 1475 1475 1475 1475 1474 1474 1475 1476 1478 1479 1479 1478 1479 1478 1478 1478 1480 1480 1481 1482 1483 1483 1484 1484 1485 1486 1487 1489 1491 1493 1495 1495 1497 1499 1501 1502 1504 1506 1508
1493 1494 1495 1495 1496 1497 1497 1497 1498 1498 1498 1497 1497 1496 1495 1494 1492 1491 1490 1489 1487 1485 1484 1482 1481 1480 1479 1478 1477 1477 1476 1475 1475 1474 1474 1473 1473 1472 1472 1472 1472 1472 1472 1471 1471 1471 1471 1471 1470 1471 1471 1470 1471 1472 1474 1475 1476 1476 1476 1475 1474 1475 1476 1476 1476 1478 1479 1480 1480 1480 1481 1483 1484 1484 1486 1488 1489 1490 1492 1495 1497 1498 1500 1502 1504
1491 1491 1492 1493 1494 1494 1495 1495 1495 1495 1495 1494 1493 1493 1492 1490 1489 1488 1486 1485 1483 1482 1479 1478 1476 1475 1474 1474 1473 1472 1471 1471 1470 1469 1469 1469 1468 1467 1467 1467 1467 1467 1467 1466 1466 1467 1467 1466 1466 1467 1466 1465 1467 1468 1469 1471 1472 1473 1473 1473 1472 1472 1473 1472 1472 1473 1475 1476 1476 1476 1477 1479 1480 1480 1482 1483 1485 1487 1489 1491 1493 1494 1495 1497 1499
1489 1489 1490 1491 1491 1492 1492 1492 1492 1492 1492 1491 1490 1489 1489 1487 1486 1484 1483 1481 1479 1477 1475 1473 1472 1470 1469 1468 1468 1467 1467 1466 1465 1465 1464 1463 1463 1462 1462 1462 1462 1462 1462 1461 1461 1462 1462 1461 1461 1462 1462 1461 1462 1464 1465 1466 1468 1469 1469 1469 1469 1469 1469 1469 1468 1469 1471 1472 1473 1473 1474 1475 1476 1477 1478 1480 1481 1483 1485 1487 1488 1489 1491 1493 1495
1488 1487 1488 1488 1488 1489 1489 1489 1490 1489 1489 1488 1487 1486 1485 1484 1483 1481 1479 1477 1475 1473 1471 1469 1468 1466 1464 1463 1462 1462 1461 1461 1460 1460 1459 1458 1457 1457 1456 1456 1457 1457 1457 1456 1456 1456 1456 1456 1456 1456 1457 1457 1458 1459 1460 1462 1463 1464 1465 1466 1466 1466 1466 1466 1466 1466 1467 1469 1469 1470 1471 1473 1473 1473 1474 1476 1478 1479 1481 1483 1484 1485 1486 1488 1490
1485 1485 1485 1485 1485 1486 1486 1487 1487 1486 1486 1485 1484 1483 1482 1480 1479 1477 1474 1472 1470 1468 1467 1465 1464 1462 1460 1459 1457 1456 1456 1455 1455 1454 1454 1453 1452 1451 1451 1450 1450 1450 1451 1451 1451 1451 1451 1451 1450 1449 1451 1453 1453 1454 1456 1458 1458 1459 1460 1461 1462 1463 1463 1463 1463 1463 1464 1465 1466 1467 1468 1469 1470 1470 1471 1473 1475 1476 1478 1479 1480 1480 1481 1484 1486
1483 1483 1482 1482 1482 1483 1484 1484 1484 1483 1483 1482 1481 1480 1478 1476 1475 1472 1470 1468 1465 1464 1462 1461 1459 1458 1457 1455 1453 1451 1451 1450 1449 1449 1448 1448 1447 1446 1445 1444 1444 1444 1445 1445 1445 1446 1446 1446 1444 1443 1445 1448 1448 1449 1452 1453 1454 1455 1456 1457 1458 1458 1459 1459 1459 1460 1461 1462 1463 1464 1464 1465 1467 1467 1468 1470 1472 1473 1474 1476 1476 1476 1478 1480 1482
1480 1480 1480 1480 1480 1480 1481 1481 1480 1480 1479 1479 1477 1476 1474 1473 1471 1469 1466 1463 1461 1459 1457 1456 1455 1453 1452 1451 1448 1446 1445 1445 1444 1444 1443 1443 1442 1440 1439 1438 1438 1438 1438 1438 1439 1440 1440 1440 1439 1438 1440 1442 1443 1444 1446 1448 1449 1450 1451 1452 1453 1454 1454 1454 1455 1456 1457 1459 1460 1460 1460 1462 1464 1464 1465 1467 1468 1469 1470 1472 1473 1473 1475 1476 1477
1477 1477 1477 1478 1478 1478 1477 1477 1476 1476 1476 1475 1474 1472 1471 1469 1467 1464 1462 1458 1456 1453 1452 1451 1450 1449 1447 1446 1443 1442 1440 1439 1439 1439 1439 1438 1436 1435 1433 1432 1432 1432 1431 1432 1433 1433 1434 1434 1434 1434 1435 1436 1437 1438 1440 1442 1443 1444 1446 1447 1448 1450 1450 1450 1450 1451 1453 1455 1456 1457 1457 1459 1460 1461 1462 1463 1464 1465 1466 1468 1469 1470 1471 1473 1475
1475 1475 1475 1475 1475 1475 1475 1474 1473 1472 1472 1471 1470 1469 1468 1466 1463 1460 1456 1453 1450 1448 1446 1445 1444 1443 1442 1440 1439 1436 1434 1434 1434 1434 1434 1433 1431 1429 1427 1426 1425 1424 1424 1426 1427 1427 1427 1427 1427 1428 1429 1430 1431 1432 1434 1435 1436 1439 1441 1440 1442 1446 1446 1445 1445 1446 1448 1451 1452 1454 1455 1455 1456 1457 1458 1459 1460 1461 1462 1464 1465 1466 1468 1469 1471
1472 1472 1473 1473 1473 1472 1472 1471 1469 1468 1468 1468 1467 1465 1464 1462 1459 1455 1451 1448 1444 1442 1440 1439 1437 1436 1435 1434 1433 1431 1429 1428 1428 1428 1428 1428 1425 1423 1422 1420 1418 1417 1417 1420 1421 1420 1421 1421 1421 1421 1422 1423 1424 1425 1427 1429 1430 1433 1434 1433 1436 1441 1442 1440 1441 1442 1443 1445 1448 1451 1451 1451 1453 1454 1454 1455 1456 1457 1459 1460 1461 1463 1464 1465 1467
1468 1468 1469 1470 1470 1470 1469 1468 1467 1465 1465 1464 1464 1462 1460 1458 1454 1451 1447 1443 1439 1436 1434 1432 1430 1429 1428 1427 1426 1425 1424 1423 1423 1422 1422 1422 1420 1418 1417 1415 1411 1409 1411 1414 1414 1414 1415 1414 1414 1415 1415 1416 1418 1419 1420 1422 1424 1426 1426 1427 1431 1435 1435 1435 1438 1439 1438 1437 1442 1447 1447 1447 1449 1450 1451 1452 1453 1453 1455 1456 1458 1459 1460 1461 1463